ID Time Temp Humidity Light PM2.5 PM10 Voltage Extra Firmware Position Fcnt TTN version Gateways Distance RSSI LSNR Radiosettings
2026-05-07 16:27:21 12.5°C 74.5625% 3.27V v3 No position 7979 ttn.v3 - -96 7 867.3MHz, SF9BW125, 4/5CR
2026-05-07 16:11:10 12.3125°C 74.1875% 3.27V v3 No position 7978 ttn.v3 - -103 6.5 868.5MHz, SF9BW125, 4/5CR
- -114 -7.25 868.5MHz, SF9BW125, 4/5CR
- -119 -7.75 868.5MHz, SF9BW125, 4/5CR
2026-05-07 15:54:59 12°C 73.375% 3.27V v3 No position 7977 ttn.v3 - -101 8.2 867.1MHz, SF9BW125, 4/5CR
- -120 -8.75 867.1MHz, SF9BW125, 4/5CR
2026-05-07 15:38:48 13.25°C 66.875% 3.27V v3 No position 7976 ttn.v3 - -95 1.8 868.3MHz, SF9BW125, 4/5CR
2026-05-07 15:22:38 12.25°C 74.4375% 3.27V v3 No position 7975 ttn.v3 - -103 10 867.9MHz, SF9BW125, 4/5CR
- -120 -12.5 867.9MHz, SF9BW125, 4/5CR
- -124 -12.5 867.9MHz, SF9BW125, 4/5CR
2026-05-07 15:06:27 13°C 70.75% 3.27V v3 No position 7974 ttn.v3 - -101 8.8 868.1MHz, SF9BW125, 4/5CR
- -115 -8 868.1MHz, SF9BW125, 4/5CR
2026-05-07 14:50:16 13.625°C 69.6875% 3.27V v3 No position 7973 ttn.v3 - -99 1.5 867.7MHz, SF9BW125, 4/5CR
- -114 -6.25 867.7MHz, SF9BW125, 4/5CR
2026-05-07 14:34:04 13.75°C 65.8125% 3.27V v3 No position 7972 ttn.v3 - -98 7 868.5MHz, SF9BW125, 4/5CR
- -112 -4.75 868.5MHz, SF9BW125, 4/5CR
- -119 -6.5 868.5MHz, SF9BW125, 4/5CR
- -111 -11 868.5MHz, SF9BW125, 4/5CR
2026-05-07 14:17:54 12.8125°C 68.875% 3.27V v3 No position 7971 ttn.v3 - -99 6 867.5MHz, SF9BW125, 4/5CR
2026-05-07 14:01:43 11.625°C 76.375% 3.27V v3 No position 7970 ttn.v3 - -98 5.5 868.3MHz, SF9BW125, 4/5CR
- -113 -9.75 868.3MHz, SF9BW125, 4/5CR
2026-05-07 13:45:33 10.6875°C 84.8125% 3.27V v3 No position 7969 ttn.v3 - -101 0.2 867.3MHz, SF9BW125, 4/5CR
- -117 -5.25 867.3MHz, SF9BW125, 4/5CR
- -121 -8 867.3MHz, SF9BW125, 4/5CR
2026-05-07 13:31:33 10.1875°C 80.75% 3.27V v3 No position 7968 ttn.v3 - -105 2.5 868.1MHz, SF12BW125, 4/5CR
- -119 -11.5 868.1MHz, SF12BW125, 4/5CR
- -119 -16.75 868.1MHz, SF12BW125, 4/5CR
- -122 -16.75 868.1MHz, SF12BW125, 4/5CR
2026-05-07 13:13:20 12.875°C 68% 3.27V v3 No position 7967 ttn.v3 - -103 8.8 867.1MHz, SF9BW125, 4/5CR
- -120 -5.25 867.1MHz, SF9BW125, 4/5CR
- -117 -13.75 867.1MHz, SF9BW125, 4/5CR
2026-05-07 12:57:10 9.625°C 100.875% 3.27V v3 No position 7966 ttn.v3 - -103 -3.2 868.5MHz, SF9BW125, 4/5CR
- -111 -5.75 868.5MHz, SF9BW125, 4/5CR
- -120 -9.5 868.5MHz, SF9BW125, 4/5CR
2026-05-07 12:41:00 9.5°C 105.938% 3.27V v3 No position 7965 ttn.v3 - -99 6 867.9MHz, SF9BW125, 4/5CR
- -118 -6.75 867.9MHz, SF9BW125, 4/5CR
- -124 -9 867.9MHz, SF9BW125, 4/5CR
- -116 -9 867.9MHz, SF9BW125, 4/5CR
- -113 -11.75 867.9MHz, SF9BW125, 4/5CR
2026-05-07 12:24:50 9.625°C 81% 3.27V v3 No position 7964 ttn.v3 - -103 3.8 868.3MHz, SF9BW125, 4/5CR
2026-05-07 12:08:41 8.9375°C 115.562% 3.27V v3 No position 7963 ttn.v3 - -105 7.2 867.7MHz, SF9BW125, 4/5CR
- -122 -6.75 867.7MHz, SF9BW125, 4/5CR
- -115 -10.75 867.7MHz, SF9BW125, 4/5CR
- -113 -11.25 867.7MHz, SF9BW125, 4/5CR
- -125 -12.5 867.7MHz, SF9BW125, 4/5CR
2026-05-07 11:52:31 8.25°C 6.6875% 3.27V v3 No position 7962 ttn.v3 - -105 0.5 868.1MHz, SF9BW125, 4/5CR
2026-05-07 11:36:22 8.375°C 10.4375% 3.27V v3 No position 7961 ttn.v3 - -98 6.2 867.5MHz, SF9BW125, 4/5CR
- -115 -11.75 867.5MHz, SF9BW125, 4/5CR
2026-05-07 11:20:12 8.875°C 6.8125% 3.27V v3 No position 7960 ttn.v3 - -104 -5.2 868.5MHz, SF9BW125, 4/5CR
2026-05-07 11:04:02 9.3125°C 114.062% 3.27V v3 No position 7959 ttn.v3 - -104 5.2 867.3MHz, SF9BW125, 4/5CR
- -115 -6 867.3MHz, SF9BW125, 4/5CR
- -122 -7.25 867.3MHz, SF9BW125, 4/5CR
2026-05-07 10:47:53 9.6875°C 116.812% 3.27V v3 No position 7958 ttn.v3 - -105 -0.8 868.3MHz, SF9BW125, 4/5CR
2026-05-07 10:31:43 8.9375°C 9.9375% 3.27V v3 No position 7957 ttn.v3 - -101 -7.5 867.1MHz, SF9BW125, 4/5CR
- -122 -9.75 867.1MHz, SF9BW125, 4/5CR
2026-05-07 10:15:34 8.1875°C 9.1875% 3.27V v3 No position 7956 ttn.v3 - -113 -5 868.1MHz, SF9BW125, 4/5CR
2026-05-07 09:59:24 7.625°C 118.75% 3.27V v3 No position 7955 ttn.v3 - -111 0.8 867.9MHz, SF9BW125, 4/5CR
- -116 -10 867.9MHz, SF9BW125, 4/5CR
2026-05-07 09:43:15 7.1875°C 115.25% 3.27V v3 No position 7954 ttn.v3 - -111 -1 868.5MHz, SF9BW125, 4/5CR
- -120 -6.25 868.5MHz, SF9BW125, 4/5CR
2026-05-07 09:27:06 7.4375°C 1.8125% 3.27V v3 No position 7953 ttn.v3 - -103 7 867.7MHz, SF9BW125, 4/5CR
- -121 -6 867.7MHz, SF9BW125, 4/5CR
- -122 -9.25 867.7MHz, SF9BW125, 4/5CR
2026-05-07 09:10:57 7.3125°C 112.312% 3.27V v3 No position 7952 ttn.v3 - -115 -6.75 868.3MHz, SF9BW125, 4/5CR
- -109 -8.8 868.3MHz, SF9BW125, 4/5CR
2026-05-07 08:54:48 6.75°C 97.1875% 3.27V v3 No position 7951 ttn.v3 - -101 6.5 867.5MHz, SF9BW125, 4/5CR
- -122 -12.5 867.5MHz, SF9BW125, 4/5CR
2026-05-07 08:38:39 6.0625°C 73.875% 3.27V v3 No position 7950 ttn.v3 - -103 8.2 868.1MHz, SF9BW125, 4/5CR
- -114 -3 868.1MHz, SF9BW125, 4/5CR
- -128 -13 868.1MHz, SF9BW125, 4/5CR
2026-05-07 08:22:30 5.625°C 46.3125% 3.27V v3 No position 7949 ttn.v3 - -103 6.2 867.3MHz, SF9BW125, 4/5CR
- -123 -12.25 867.3MHz, SF9BW125, 4/5CR
2026-05-07 08:06:21 5.4375°C 33.125% 3.27V v3 No position 7948 ttn.v3 - -102 6.8 868.5MHz, SF9BW125, 4/5CR
- -113 -7.5 868.5MHz, SF9BW125, 4/5CR
2026-05-07 07:50:13 5.4375°C 28.0625% 3.27V v3 No position 7947 ttn.v3 - -103 7.5 867.1MHz, SF9BW125, 4/5CR
- -119 -3.75 867.1MHz, SF9BW125, 4/5CR
2026-05-07 07:34:04 5.1875°C 13.8125% 3.27V v3 No position 7946 ttn.v3 - -99 6.2 868.3MHz, SF9BW125, 4/5CR
2026-05-07 07:17:55 5.0625°C 12.375% 3.27V v3 No position 7945 ttn.v3 - -103 8.2 867.9MHz, SF9BW125, 4/5CR
- -112 -8.75 867.9MHz, SF9BW125, 4/5CR
- -126 -15 867.9MHz, SF9BW125, 4/5CR
2026-05-07 07:01:47 4.875°C 2.6875% 3.27V v3 No position 7944 ttn.v3 - -103 9 868.1MHz, SF9BW125, 4/5CR
2026-05-07 06:45:38 4.6875°C -5.75% 3.27V v3 No position 7943 ttn.v3 - -109 5 867.7MHz, SF9BW125, 4/5CR
2026-05-07 06:13:22 4.125°C 103.5% 3.27V v3 No position 7941 ttn.v3 - -103 0.5 867.5MHz, SF9BW125, 4/5CR
2026-05-07 05:57:13 3.875°C 95.1875% 3.27V v3 No position 7940 ttn.v3 - -98 6.8 868.3MHz, SF9BW125, 4/5CR
2026-05-07 05:41:06 3.6875°C 93% 3.27V v3 No position 7939 ttn.v3 - -105 8 867.3MHz, SF9BW125, 4/5CR
2026-05-07 05:24:57 3.75°C 94.5% 3.27V v3 No position 7938 ttn.v3 - -104 8.2 868.1MHz, SF9BW125, 4/5CR
2026-05-07 05:08:49 3.875°C 101.25% 3.27V v3 No position 7937 ttn.v3 - -105 8.5 867.1MHz, SF9BW125, 4/5CR
- -121 -10.25 867.1MHz, SF9BW125, 4/5CR
2026-05-07 04:52:41 4°C 105.562% 3.27V v3 No position 7936 ttn.v3 - -103 0.2 868.5MHz, SF9BW125, 4/5CR
- -112 -9.25 868.5MHz, SF9BW125, 4/5CR
2026-05-07 04:36:33 4.1875°C 111% 3.27V v3 No position 7935 ttn.v3 - -104 2.2 867.9MHz, SF9BW125, 4/5CR
- -117 -10.25 867.9MHz, SF9BW125, 4/5CR
2026-05-07 04:20:24 4.25°C 114.875% 3.27V v3 No position 7934 ttn.v3 - -99 5.2 868.3MHz, SF9BW125, 4/5CR
2026-05-07 04:04:16 4.3125°C 114.938% 3.27V v3 No position 7933 ttn.v3 - -103 8.5 867.7MHz, SF9BW125, 4/5CR
2026-05-07 03:48:08 4.625°C -3.625% 3.27V v3 No position 7932 ttn.v3 - -103 2.5 868.1MHz, SF9BW125, 4/5CR
2026-05-07 03:31:59 4.8125°C 1.125% 3.27V v3 No position 7931 ttn.v3 - -103 7.2 867.5MHz, SF9BW125, 4/5CR
- -115 -12 867.5MHz, SF9BW125, 4/5CR
2026-05-07 03:15:51 4.8125°C -0.125% 3.27V v3 No position 7930 ttn.v3 - -101 7 868.5MHz, SF9BW125, 4/5CR
2026-05-07 02:59:43 4.8125°C -1.0625% 3.27V v3 No position 7929 ttn.v3 - -99 3.2 867.3MHz, SF9BW125, 4/5CR
2026-05-07 02:43:34 4.6875°C 2.25% 3.27V v3 No position 7928 ttn.v3 - -99 0.8 868.3MHz, SF9BW125, 4/5CR
- -113 -4.5 868.3MHz, SF9BW125, 4/5CR
2026-05-07 02:27:26 4.6875°C -0.6875% 3.27V v3 No position 7927 ttn.v3 - -109 1.5 867.1MHz, SF9BW125, 4/5CR
2026-05-07 02:11:17 4.625°C 100.812% 3.27V v3 No position 7926 ttn.v3 - -99 8.8 868.1MHz, SF9BW125, 4/5CR
2026-05-07 01:55:09 4.5°C 99.875% 3.27V v3 No position 7925 ttn.v3 - -103 9 867.9MHz, SF9BW125, 4/5CR
- -114 -13.75 867.9MHz, SF9BW125, 4/5CR
2026-05-07 01:39:01 4.5625°C 105.75% 3.27V v3 No position 7924 ttn.v3 - -104 -1.8 868.5MHz, SF9BW125, 4/5CR
- -111 -12.75 868.5MHz, SF9BW125, 4/5CR
2026-05-07 01:22:52 4.6875°C 102.938% 3.27V v3 No position 7923 ttn.v3 - -113 -13.5 867.7MHz, SF9BW125, 4/5CR
2026-05-07 01:06:44 4.75°C 100.062% 3.27V v3 No position 7922 ttn.v3 - -99 -0.2 868.3MHz, SF9BW125, 4/5CR
2026-05-07 00:50:35 4.75°C 101.375% 3.27V v3 No position 7921 ttn.v3 - -104 6.5 867.5MHz, SF9BW125, 4/5CR
- -109 -13.75 867.5MHz, SF9BW125, 4/5CR
2026-05-07 00:34:27 4.625°C 90.5% 3.27V v3 No position 7920 ttn.v3 - -105 8.2 868.1MHz, SF9BW125, 4/5CR
- -122 -11.5 868.1MHz, SF9BW125, 4/5CR
- -128 -13 868.1MHz, SF9BW125, 4/5CR
2026-05-07 00:18:18 4.9375°C 114.938% 3.27V v3 No position 7919 ttn.v3 - -99 1.2 867.3MHz, SF9BW125, 4/5CR
2026-05-07 00:02:10 4.9375°C 112.938% 3.27V v3 No position 7918 ttn.v3 - -105 5.5 868.5MHz, SF9BW125, 4/5CR
- -112 -5.25 868.5MHz, SF9BW125, 4/5CR
- -111 -11 868.5MHz, SF9BW125, 4/5CR
2026-05-06 23:46:01 5.1875°C 7.5625% 3.27V v3 No position 7917 ttn.v3 - -101 -1 867.1MHz, SF9BW125, 4/5CR
- -121 -11.75 867.1MHz, SF9BW125, 4/5CR
2026-05-06 23:29:53 5.625°C 69.4375% 3.27V v3 No position 7916 ttn.v3 - -101 8 868.3MHz, SF9BW125, 4/5CR
2026-05-06 23:13:44 5.75°C 68.3125% 3.27V v3 No position 7915 ttn.v3 - -105 9.2 867.9MHz, SF9BW125, 4/5CR
2026-05-06 22:57:35 5.6875°C 63.6875% 3.27V v3 No position 7914 ttn.v3 - -101 1.5 868.1MHz, SF9BW125, 4/5CR
- -115 -9.75 868.1MHz, SF9BW125, 4/5CR
2026-05-06 22:41:27 5.75°C 69.375% 3.27V v3 No position 7913 ttn.v3 - -104 6 867.7MHz, SF9BW125, 4/5CR
2026-05-06 22:25:18 5.875°C 82.625% 3.27V v3 No position 7912 ttn.v3 - -107 6.2 868.5MHz, SF9BW125, 4/5CR
- -112 -1.25 868.5MHz, SF9BW125, 4/5CR
- -124 -9.75 868.5MHz, SF9BW125, 4/5CR
2026-05-06 22:09:09 5.8125°C 80% 3.27V v3 No position 7911 ttn.v3 - -101 4.8 867.5MHz, SF9BW125, 4/5CR
2026-05-06 21:53:00 5.8125°C 84.0625% 3.27V v3 No position 7910 ttn.v3 - -99 7.2 868.3MHz, SF9BW125, 4/5CR
2026-05-06 21:36:52 6°C 91.875% 3.27V v3 No position 7909 ttn.v3 - -97 0.8 867.3MHz, SF9BW125, 4/5CR
2026-05-06 21:20:43 6.375°C 107.312% 3.27V v3 No position 7908 ttn.v3 - -107 5.5 868.1MHz, SF9BW125, 4/5CR
2026-05-06 21:04:34 6.6875°C 118.25% 3.27V v3 No position 7907 ttn.v3 - -102 2 867.1MHz, SF9BW125, 4/5CR
- -117 -5.5 867.1MHz, SF9BW125, 4/5CR
- -119 -6 867.1MHz, SF9BW125, 4/5CR
2026-05-06 20:48:25 7.4375°C 7.9375% 3.27V v3 No position 7906 ttn.v3 - -102 -2 868.5MHz, SF9BW125, 4/5CR
2026-05-06 20:32:16 6.9375°C 2% 3.27V v3 No position 7905 ttn.v3 - -105 8.8 867.9MHz, SF9BW125, 4/5CR
2026-05-06 20:16:07 7.1875°C 4.5% 3.27V v3 No position 7904 ttn.v3 - -99 0.2 868.3MHz, SF9BW125, 4/5CR
2026-05-06 19:59:57 7.1875°C 4.4375% 3.27V v3 No position 7903 ttn.v3 - -103 8 867.7MHz, SF9BW125, 4/5CR
- -110 -11.5 867.7MHz, SF9BW125, 4/5CR
2026-05-06 19:43:48 8.0625°C 10.9375% 3.27V v3 No position 7902 ttn.v3 - -101 6.5 868.1MHz, SF9BW125, 4/5CR
2026-05-06 19:27:39 8.75°C 10.8125% 3.27V v3 No position 7901 ttn.v3 - -105 6.2 867.5MHz, SF9BW125, 4/5CR
2026-05-06 19:11:29 10.3125°C 8.6875% 3.27V v3 No position 7900 ttn.v3 - -104 6.8 868.5MHz, SF9BW125, 4/5CR
- -110 0 868.5MHz, SF9BW125, 4/5CR
2026-05-06 18:55:19 9.5625°C 12.375% 3.27V v3 No position 7899 ttn.v3 - -101 0.5 867.3MHz, SF9BW125, 4/5CR
- -120 -9.25 867.3MHz, SF9BW125, 4/5CR
2026-05-06 18:39:09 10°C 118.875% 3.27V v3 No position 7898 ttn.v3 - -99 -0.8 868.3MHz, SF9BW125, 4/5CR
2026-05-06 18:22:59 8.875°C 11.0625% 3.27V v3 No position 7897 ttn.v3 - -104 5.5 867.1MHz, SF9BW125, 4/5CR
- -120 -9.5 867.1MHz, SF9BW125, 4/5CR
2026-05-06 18:06:50 9.25°C -5.6875% 3.27V v3 No position 7896 ttn.v3 - -109 7.8 868.1MHz, SF9BW125, 4/5CR
2026-05-06 17:50:40 7.75°C 3.8125% 3.27V v3 No position 7895 ttn.v3 - -105 9.5 867.9MHz, SF9BW125, 4/5CR
2026-05-06 17:34:31 7.75°C 4.6875% 3.27V v3 No position 7894 ttn.v3 - -105 6.8 868.5MHz, SF9BW125, 4/5CR
- -112 -13.75 868.5MHz, SF9BW125, 4/5CR
2026-05-06 17:18:21 8.875°C 89.1875% 3.27V v3 No position 7893 ttn.v3 - -101 7.2 867.7MHz, SF9BW125, 4/5CR
- -112 -10.75 867.7MHz, SF9BW125, 4/5CR
2026-05-06 17:02:12 9.625°C 86.4375% 3.27V v3 No position 7892 ttn.v3 - -103 7.5 868.3MHz, SF9BW125, 4/5CR
2026-05-06 16:46:02 8.8125°C 85.9375% 3.27V v3 No position 7891 ttn.v3 - -105 6.2 867.5MHz, SF9BW125, 4/5CR
- -111 -7.25 867.5MHz, SF9BW125, 4/5CR
2026-05-06 16:29:53 7.625°C 6.8125% 3.27V v3 No position 7890 ttn.v3 - -99 6.2 868.1MHz, SF9BW125, 4/5CR
- -113 -9.75 868.1MHz, SF9BW125, 4/5CR
2026-05-06 16:13:43 7.375°C 11.875% 3.27V v3 No position 7889 ttn.v3 - -99 2.2 867.3MHz, SF9BW125, 4/5CR
2026-05-06 15:57:34 7.1875°C 11.625% 3.27V v3 No position 7888 ttn.v3 - -103 1.5 868.5MHz, SF9BW125, 4/5CR
- -120 -12.25 868.5MHz, SF9BW125, 4/5CR
2026-05-06 15:41:25 7.125°C 12.8125% 3.27V v3 No position 7887 ttn.v3 - -104 8 867.1MHz, SF9BW125, 4/5CR
- -119 -7 867.1MHz, SF9BW125, 4/5CR
2026-05-06 15:25:16 7.5°C 12% 3.27V v3 No position 7886 ttn.v3 - -103 5 868.3MHz, SF9BW125, 4/5CR
- -115 -6.25 868.3MHz, SF9BW125, 4/5CR
2026-05-06 14:52:57 11.0625°C 92.125% 3.27V v3 No position 7884 ttn.v3 - -99 7.5 868.1MHz, SF9BW125, 4/5CR
2026-05-06 14:36:47 9.3125°C 7.125% 3.27V v3 No position 7883 ttn.v3 - -107 8.2 867.7MHz, SF9BW125, 4/5CR
- -117 -5.75 867.7MHz, SF9BW125, 4/5CR
2026-05-06 14:20:38 7.0625°C 63.5% 3.27V v3 No position 7882 ttn.v3 - -105 8 868.5MHz, SF9BW125, 4/5CR
- -116 -5.75 868.5MHz, SF9BW125, 4/5CR
- -119 -6 868.5MHz, SF9BW125, 4/5CR
2026-05-06 14:04:29 8.4375°C 111.5% 3.27V v3 No position 7881 ttn.v3 - -105 -1.2 867.5MHz, SF9BW125, 4/5CR
2026-05-06 13:48:19 7.0625°C 6.4375% 3.27V v3 No position 7880 ttn.v3 - -98 4 868.3MHz, SF9BW125, 4/5CR
- -116 -7 868.3MHz, SF9BW125, 4/5CR
- -125 -12.25 868.3MHz, SF9BW125, 4/5CR
2026-05-06 13:32:10 6.9375°C 10.9375% 3.27V v3 No position 7879 ttn.v3 - -101 0.5 867.3MHz, SF9BW125, 4/5CR
- -119 -4.5 867.3MHz, SF9BW125, 4/5CR
- -117 -12.25 867.3MHz, SF9BW125, 4/5CR
2026-05-06 13:16:01 8.625°C 10.375% 3.27V v3 No position 7878 ttn.v3 - -98 -1 868.1MHz, SF9BW125, 4/5CR
2026-05-06 12:59:51 9.4375°C 14.4375% 3.27V v3 No position 7877 ttn.v3 - -103 -1.2 867.1MHz, SF9BW125, 4/5CR
2026-05-06 12:43:42 7.9375°C 100.5% 3.27V v3 No position 7876 ttn.v3 - -101 -4.5 868.5MHz, SF9BW125, 4/5CR
2026-05-06 12:27:33 6.375°C 59.625% 3.27V v3 No position 7875 ttn.v3 - -105 7 867.9MHz, SF9BW125, 4/5CR
- -122 -9.25 867.9MHz, SF9BW125, 4/5CR
2026-05-06 12:11:24 6.1875°C 5% 3.27V v3 No position 7874 ttn.v3 - -101 3.5 868.3MHz, SF9BW125, 4/5CR
- -120 -13 868.3MHz, SF9BW125, 4/5CR
2026-05-06 11:55:15 4.9375°C 77.4375% 3.27V v3 No position 7873 ttn.v3 - -105 6.8 867.7MHz, SF9BW125, 4/5CR
- -124 -12.25 867.7MHz, SF9BW125, 4/5CR
2026-05-06 11:41:17 3.6875°C 97.75% 3.27V v3 No position 7872 ttn.v3 - -103 5 868.1MHz, SF12BW125, 4/5CR
- -117 -11.25 868.1MHz, SF12BW125, 4/5CR
- -119 -18.25 868.1MHz, SF12BW125, 4/5CR
2026-05-06 11:23:05 6.5°C 11.5% 3.27V v3 No position 7871 ttn.v3 - -104 6.2 867.5MHz, SF9BW125, 4/5CR
- -114 -11.25 867.5MHz, SF9BW125, 4/5CR
- -122 -11.25 867.5MHz, SF9BW125, 4/5CR
- -108 -12.5 867.5MHz, SF9BW125, 4/5CR
2026-05-06 11:06:56 6.625°C 104.188% 3.27V v3 No position 7870 ttn.v3 - -99 -5 868.5MHz, SF9BW125, 4/5CR
2026-05-06 10:50:47 6.0625°C 75.75% 3.27V v3 No position 7869 ttn.v3 - -118 -6 867.3MHz, SF9BW125, 4/5CR
2026-05-06 10:34:39 5.5°C 32.75% 3.27V v3 No position 7868 ttn.v3 - -105 6.5 868.3MHz, SF9BW125, 4/5CR
2026-05-06 10:18:30 5°C 10.625% 3.27V v3 No position 7867 ttn.v3 - -107 8 867.1MHz, SF9BW125, 4/5CR
- -118 -12.25 867.1MHz, SF9BW125, 4/5CR
- -121 -13 867.1MHz, SF9BW125, 4/5CR
2026-05-06 10:02:22 4.6875°C 118.375% 3.27V v3 No position 7866 ttn.v3 - -114 -8 868.1MHz, SF9BW125, 4/5CR
2026-05-06 09:46:13 4.4375°C 118.812% 3.27V v3 No position 7865 ttn.v3 - -107 6.8 867.9MHz, SF9BW125, 4/5CR
2026-05-06 09:30:05 4.125°C 116.938% 3.27V v3 No position 7864 ttn.v3 - -107 3 868.5MHz, SF9BW125, 4/5CR
2026-05-06 09:13:57 4.75°C 110.938% 3.27V v3 No position 7863 ttn.v3 - -109 6 867.7MHz, SF9BW125, 4/5CR
2026-05-06 08:57:48 5.0625°C 5.4375% 3.27V v3 No position 7862 ttn.v3 - -98 5.5 868.3MHz, SF9BW125, 4/5CR
- -113 -5.75 868.3MHz, SF9BW125, 4/5CR
2026-05-06 08:41:40 4.5°C 1.4375% 3.27V v3 No position 7861 ttn.v3 - -105 -1 867.5MHz, SF9BW125, 4/5CR
2026-05-06 08:25:32 3.8125°C 98.8125% 3.27V v3 No position 7860 ttn.v3 - -99 -3.8 868.1MHz, SF9BW125, 4/5CR
2026-05-06 07:53:16 3.5625°C 90% 3.27V v3 No position 7858 ttn.v3 - -103 6.2 868.5MHz, SF9BW125, 4/5CR
- -118 -11.75 868.5MHz, SF9BW125, 4/5CR
- -113 -13.25 868.5MHz, SF9BW125, 4/5CR
2026-05-06 07:37:08 3.25°C 109.188% 3.27V v3 No position 7857 ttn.v3 - -107 7.5 867.1MHz, SF9BW125, 4/5CR
- -121 -9 867.1MHz, SF9BW125, 4/5CR
2026-05-06 07:21:00 2.6875°C 61.875% 3.27V v3 No position 7856 ttn.v3 - -107 5.2 868.3MHz, SF9BW125, 4/5CR
2026-05-06 07:04:52 2.5°C 52.4375% 3.27V v3 No position 7855 ttn.v3 - -109 7.5 867.9MHz, SF9BW125, 4/5CR
- -122 -7.75 867.9MHz, SF9BW125, 4/5CR
2026-05-06 06:48:44 2.375°C 42.6875% 3.27V v3 No position 7854 ttn.v3 - -104 7.5 868.1MHz, SF9BW125, 4/5CR
2026-05-06 06:32:36 2.25°C 39.25% 3.27V v3 No position 7853 ttn.v3 - -105 6.2 867.7MHz, SF9BW125, 4/5CR
- -121 -5.75 867.7MHz, SF9BW125, 4/5CR
- -116 -6.25 867.7MHz, SF9BW125, 4/5CR
2026-05-06 06:16:29 2.125°C 39.375% 3.27V v3 No position 7852 ttn.v3 - -101 7.5 868.5MHz, SF9BW125, 4/5CR
- -110 -2.75 868.5MHz, SF9BW125, 4/5CR
- -121 -9.5 868.5MHz, SF9BW125, 4/5CR
2026-05-06 06:00:21 2.1875°C 33.5625% 3.27V v3 No position 7851 ttn.v3 - -107 0.2 867.5MHz, SF9BW125, 4/5CR
2026-05-06 05:44:13 2.4375°C 29.3125% 3.27V v3 No position 7850 ttn.v3 - -105 7.8 868.3MHz, SF9BW125, 4/5CR
- -118 -10.25 868.3MHz, SF9BW125, 4/5CR
2026-05-06 05:28:05 2.125°C 29.4375% 3.27V v3 No position 7849 ttn.v3 - -105 1 867.3MHz, SF9BW125, 4/5CR
2026-05-06 05:11:58 2.4375°C 42.25% 3.27V v3 No position 7848 ttn.v3 - -101 -1 868.1MHz, SF9BW125, 4/5CR
2026-05-06 04:55:50 3.625°C 6.4375% 3.27V v3 No position 7847 ttn.v3 - -105 -0.2 867.1MHz, SF9BW125, 4/5CR
- -121 -13.25 867.1MHz, SF9BW125, 4/5CR
2026-05-06 04:39:42 3.5625°C -5.5% 3.27V v3 No position 7846 ttn.v3 - -103 -2.5 868.5MHz, SF9BW125, 4/5CR
- -116 -5.75 868.5MHz, SF9BW125, 4/5CR
- -123 -9.75 868.5MHz, SF9BW125, 4/5CR
- -113 -10.75 868.5MHz, SF9BW125, 4/5CR
2026-05-06 04:23:33 3.5°C 96.75% 3.27V v3 No position 7845 ttn.v3 - -107 6 867.9MHz, SF9BW125, 4/5CR
2026-05-06 04:07:25 3.375°C 96.875% 3.27V v3 No position 7844 ttn.v3 - -98 -0.2 868.3MHz, SF9BW125, 4/5CR
- -118 -11.75 868.3MHz, SF9BW125, 4/5CR
2026-05-06 03:51:17 3.125°C 91.625% 3.27V v3 No position 7843 ttn.v3 - -107 8.2 867.7MHz, SF9BW125, 4/5CR
- -116 -3.75 867.7MHz, SF9BW125, 4/5CR
- -115 -9.5 867.7MHz, SF9BW125, 4/5CR
2026-05-06 03:35:10 3.1875°C 87.25% 3.27V v3 No position 7842 ttn.v3 - -105 8.2 868.1MHz, SF9BW125, 4/5CR
- -121 -9 868.1MHz, SF9BW125, 4/5CR
2026-05-06 03:19:02 3°C 87.3125% 3.27V v3 No position 7841 ttn.v3 - -101 6 867.5MHz, SF9BW125, 4/5CR
- -113 -11 867.5MHz, SF9BW125, 4/5CR
- -111 -11.25 867.5MHz, SF9BW125, 4/5CR
2026-05-06 03:02:54 3°C 8.625% 3.27V v3 No position 7840 ttn.v3 - -101 6 868.5MHz, SF9BW125, 4/5CR
2026-05-06 02:46:46 3.3125°C 11.3125% 3.27V v3 No position 7839 ttn.v3 - -101 7.8 867.3MHz, SF9BW125, 4/5CR
- -115 -3.5 867.3MHz, SF9BW125, 4/5CR
- -121 -6.25 867.3MHz, SF9BW125, 4/5CR
2026-05-06 02:30:38 3.6875°C 87.6875% 3.27V v3 No position 7838 ttn.v3 - -99 6.8 868.3MHz, SF9BW125, 4/5CR
2026-05-06 02:14:29 3.5°C 87.625% 3.27V v3 No position 7837 ttn.v3 - -105 1.5 867.1MHz, SF9BW125, 4/5CR
2026-05-06 01:58:21 3.75°C 90.875% 3.27V v3 No position 7836 ttn.v3 - -105 0.8 868.1MHz, SF9BW125, 4/5CR
2026-05-06 01:42:13 3.8125°C 114.875% 3.27V v3 No position 7835 ttn.v3 - -104 0.2 867.9MHz, SF9BW125, 4/5CR
- -117 -12.5 867.9MHz, SF9BW125, 4/5CR
2026-05-06 01:26:05 4°C 24% 3.27V v3 No position 7834 ttn.v3 - -101 7.2 868.5MHz, SF9BW125, 4/5CR
2026-05-06 01:09:57 3.9375°C 33.5% 3.27V v3 No position 7833 ttn.v3 - -104 -1.8 867.7MHz, SF9BW125, 4/5CR
2026-05-06 00:53:48 3.8125°C 31.625% 3.27V v3 No position 7832 ttn.v3 - -101 7 868.3MHz, SF9BW125, 4/5CR
2026-05-06 00:37:40 3.75°C 21.9375% 3.27V v3 No position 7831 ttn.v3 - -101 2.2 867.5MHz, SF9BW125, 4/5CR
- -114 -8.5 867.5MHz, SF9BW125, 4/5CR
- -121 -11.5 867.5MHz, SF9BW125, 4/5CR
2026-05-06 00:21:32 3.75°C 17.5625% 3.27V v3 No position 7830 ttn.v3 - -104 7.5 868.1MHz, SF9BW125, 4/5CR
2026-05-06 00:05:24 3.8125°C 13.625% 3.27V v3 No position 7829 ttn.v3 - -104 7 867.3MHz, SF9BW125, 4/5CR
2026-05-05 23:49:16 3.75°C 23.8125% 3.27V v3 No position 7828 ttn.v3 - -101 1.5 868.5MHz, SF9BW125, 4/5CR
- -108 -10.75 868.5MHz, SF9BW125, 4/5CR
2026-05-05 23:33:08 3.875°C 21.875% 3.27V v3 No position 7827 ttn.v3 - -101 2.5 867.1MHz, SF9BW125, 4/5CR
- -114 -3 867.1MHz, SF9BW125, 4/5CR
- -119 -3.25 867.1MHz, SF9BW125, 4/5CR
2026-05-05 23:17:00 4°C 37.25% 3.27V v3 No position 7826 ttn.v3 - -105 5 868.3MHz, SF9BW125, 4/5CR
2026-05-05 23:00:52 4.25°C 48.4375% 3.27V v3 No position 7825 ttn.v3 - -107 4.8 867.9MHz, SF9BW125, 4/5CR
2026-05-05 22:44:43 4.5°C 59.4375% 3.27V v3 No position 7824 ttn.v3 - -105 7.5 868.1MHz, SF9BW125, 4/5CR
2026-05-05 22:28:35 4.6875°C 93.375% 3.27V v3 No position 7823 ttn.v3 - -109 6.2 867.7MHz, SF9BW125, 4/5CR
2026-05-05 22:12:26 4.8125°C 102.25% 3.27V v3 No position 7822 ttn.v3 - -107 5.8 868.5MHz, SF9BW125, 4/5CR
2026-05-05 21:56:18 5°C 108.5% 3.27V v3 No position 7821 ttn.v3 - -103 -0.2 867.5MHz, SF9BW125, 4/5CR
2026-05-05 21:40:09 5.3125°C -5.125% 3.27V v3 No position 7820 ttn.v3 - -105 6 868.3MHz, SF9BW125, 4/5CR
- -114 -12 868.3MHz, SF9BW125, 4/5CR
2026-05-05 21:24:01 5.8125°C 7.5625% 3.27V v3 No position 7819 ttn.v3 - -105 5.2 867.3MHz, SF9BW125, 4/5CR
2026-05-05 21:07:51 7.25°C 11.5625% 3.27V v3 No position 7818 ttn.v3 - -104 3.8 868.1MHz, SF9BW125, 4/5CR
- -118 -14.75 868.1MHz, SF9BW125, 4/5CR
2026-05-05 20:51:42 7.5625°C 116.688% 3.27V v3 No position 7817 ttn.v3 - -109 6.2 867.1MHz, SF9BW125, 4/5CR
2026-05-05 20:35:33 8°C 90.75% 3.27V v3 No position 7816 ttn.v3 - -107 -2.8 868.5MHz, SF9BW125, 4/5CR
- -109 -4 868.5MHz, SF9BW125, 4/5CR
- -122 -9 868.5MHz, SF9BW125, 4/5CR
2026-05-05 20:19:24 7.8125°C 109.875% 3.27V v3 No position 7815 ttn.v3 - -104 -5.5 867.9MHz, SF9BW125, 4/5CR
- -122 -7.5 867.9MHz, SF9BW125, 4/5CR
2026-05-05 20:03:14 8.375°C 100.188% 3.27V v3 No position 7814 ttn.v3 - -105 4.2 868.3MHz, SF9BW125, 4/5CR
2026-05-05 19:47:05 7.5625°C 98.3125% 3.27V v3 No position 7813 ttn.v3 - -105 5.8 867.7MHz, SF9BW125, 4/5CR
- -126 -10.75 867.7MHz, SF9BW125, 4/5CR
2026-05-05 19:30:56 7.1875°C 6.6875% 3.27V v3 No position 7812 ttn.v3 - -105 7 868.1MHz, SF9BW125, 4/5CR
2026-05-05 19:14:47 8.4375°C 105.25% 3.27V v3 No position 7811 ttn.v3 - -101 -3.5 867.5MHz, SF9BW125, 4/5CR
- -117 -11.5 867.5MHz, SF9BW125, 4/5CR
2026-05-05 18:58:37 8.75°C 104.938% 3.27V v3 No position 7810 ttn.v3 - -102 6.2 868.5MHz, SF9BW125, 4/5CR
2026-05-05 18:42:28 8.5°C 91.75% 3.27V v3 No position 7809 ttn.v3 - -105 3.8 867.3MHz, SF9BW125, 4/5CR
- -119 -9.25 867.3MHz, SF9BW125, 4/5CR
2026-05-05 18:26:18 7.4375°C -2.375% 3.27V v3 No position 7808 ttn.v3 - -103 5.8 868.3MHz, SF9BW125, 4/5CR
2026-05-05 18:10:09 7.375°C 1.125% 3.27V v3 No position 7807 ttn.v3 - -109 4.2 867.1MHz, SF9BW125, 4/5CR
- -119 -4 867.1MHz, SF9BW125, 4/5CR
2026-05-05 17:53:59 8.25°C 4.375% 3.27V v3 No position 7806 ttn.v3 - -105 8.2 868.1MHz, SF9BW125, 4/5CR
2026-05-05 17:37:49 9.9375°C 12.375% 3.27V v3 No position 7805 ttn.v3 - -107 7.5 867.9MHz, SF9BW125, 4/5CR
2026-05-05 17:21:39 9.375°C 117.25% 3.27V v3 No position 7804 ttn.v3 - -107 5.8 868.5MHz, SF9BW125, 4/5CR
- -118 -4.75 868.5MHz, SF9BW125, 4/5CR
2026-05-05 17:05:30 6.1875°C 106.875% 3.27V v3 No position 7803 ttn.v3 - -107 7 867.7MHz, SF9BW125, 4/5CR
- -119 -4.75 867.7MHz, SF9BW125, 4/5CR
- -114 -9.5 867.7MHz, SF9BW125, 4/5CR
2026-05-05 16:49:22 5.3125°C 12.5% 3.27V v3 No position 7802 ttn.v3 - -99 7.2 868.3MHz, SF9BW125, 4/5CR
2026-05-05 16:33:13 5.125°C 80.75% 3.27V v3 No position 7801 ttn.v3 - -103 5 867.5MHz, SF9BW125, 4/5CR
- -119 -8.5 867.5MHz, SF9BW125, 4/5CR
- -113 -9 867.5MHz, SF9BW125, 4/5CR
2026-05-05 16:17:04 6.4375°C 102.312% 3.27V v3 No position 7800 ttn.v3 - -104 7 868.1MHz, SF9BW125, 4/5CR
2026-05-05 16:00:55 6.6875°C 105.438% 3.27V v3 No position 7799 ttn.v3 - -121 -7 867.3MHz, SF9BW125, 4/5CR
2026-05-05 15:44:46 6.5625°C 101.438% 3.27V v3 No position 7798 ttn.v3 - -101 -7.5 868.5MHz, SF9BW125, 4/5CR
2026-05-05 15:28:37 7.1875°C 50.5625% 3.27V v3 No position 7797 ttn.v3 - -118 -5 867.1MHz, SF9BW125, 4/5CR
- -110 -5.2 867.1MHz, SF9BW125, 4/5CR
2026-05-05 15:12:28 7.875°C 44% 3.27V v3 No position 7796 ttn.v3 - -105 -7 868.3MHz, SF9BW125, 4/5CR
2026-05-05 14:56:19 7.625°C 87.75% 3.27V v3 No position 7795 ttn.v3 - -111 3.8 867.9MHz, SF9BW125, 4/5CR
- -123 -8.25 867.9MHz, SF9BW125, 4/5CR
2026-05-05 14:40:10 3.625°C 42.5% 3.27V v3 No position 7794 ttn.v3 - -109 5.8 868.1MHz, SF9BW125, 4/5CR
2026-05-05 14:24:02 4.125°C 8.75% 3.27V v3 No position 7793 ttn.v3 - -104 7.5 867.7MHz, SF9BW125, 4/5CR
- -116 -4.75 867.7MHz, SF9BW125, 4/5CR
- -120 -5.25 867.7MHz, SF9BW125, 4/5CR
2026-05-05 14:07:54 5.75°C 98.0625% 3.27V v3 No position 7792 ttn.v3 - -101 1.5 868.5MHz, SF9BW125, 4/5CR
2026-05-05 13:51:45 6.0625°C 104% 3.27V v3 No position 7791 ttn.v3 - -103 -5.2 867.5MHz, SF9BW125, 4/5CR
- -117 -11.25 867.5MHz, SF9BW125, 4/5CR
2026-05-05 13:35:37 3.9375°C 20.8125% 3.27V v3 No position 7790 ttn.v3 - -100 3.8 868.3MHz, SF9BW125, 4/5CR
2026-05-05 13:19:28 4°C 87.4375% 3.27V v3 No position 7789 ttn.v3 - -103 0.2 867.3MHz, SF9BW125, 4/5CR
- -120 -10.25 867.3MHz, SF9BW125, 4/5CR
2026-05-05 13:03:20 4.375°C 80.25% 3.27V v3 No position 7788 ttn.v3 - -107 5 868.1MHz, SF9BW125, 4/5CR
2026-05-05 12:47:12 4.3125°C 97% 3.27V v3 No position 7787 ttn.v3 - -104 -4.8 867.1MHz, SF9BW125, 4/5CR
- -120 -7 867.1MHz, SF9BW125, 4/5CR
2026-05-05 12:31:04 3.9375°C 68% 3.27V v3 No position 7786 ttn.v3 - -102 8.2 868.5MHz, SF9BW125, 4/5CR
2026-05-05 12:14:56 4.1875°C 81.75% 3.27V v3 No position 7785 ttn.v3 - -102 -3.5 867.9MHz, SF9BW125, 4/5CR
- -121 -8 867.9MHz, SF9BW125, 4/5CR
2026-05-05 11:58:48 3.8125°C 97.5625% 3.27V v3 No position 7784 ttn.v3 - -107 7.8 868.3MHz, SF9BW125, 4/5CR
2026-05-05 11:42:39 3.75°C 52.5625% 3.27V v3 No position 7783 ttn.v3 - -116 -10.5 867.7MHz, SF9BW125, 4/5CR
- -121 -11.5 867.7MHz, SF9BW125, 4/5CR
2026-05-05 11:26:31 3.5°C 33.0625% 3.27V v3 No position 7782 ttn.v3 - -103 -0.2 868.1MHz, SF9BW125, 4/5CR
- -121 -11.25 868.1MHz, SF9BW125, 4/5CR
2026-05-05 11:10:24 2.5°C 82.375% 3.27V v3 No position 7781 ttn.v3 - -109 4 867.5MHz, SF9BW125, 4/5CR
- -112 -9.75 867.5MHz, SF9BW125, 4/5CR
- -119 -10 867.5MHz, SF9BW125, 4/5CR
2026-05-05 10:54:16 3°C 118.5% 3.27V v3 No position 7780 ttn.v3 - -105 6.5 868.5MHz, SF9BW125, 4/5CR
- -110 -3.75 868.5MHz, SF9BW125, 4/5CR
- -123 -10 868.5MHz, SF9BW125, 4/5CR
2026-05-05 10:38:08 3.8125°C 87.5625% 3.27V v3 No position 7779 ttn.v3 - -120 -11 867.3MHz, SF9BW125, 4/5CR
2026-05-05 10:22:00 3.625°C 110.5% 3.27V v3 No position 7778 ttn.v3 - -99 -4 868.3MHz, SF9BW125, 4/5CR
2026-05-05 10:05:51 3.125°C 88.1875% 3.27V v3 No position 7777 ttn.v3 - -120 -3.75 867.1MHz, SF9BW125, 4/5CR
- -104 -6.2 867.1MHz, SF9BW125, 4/5CR

Message count: 200
Node count: 1

Messages per node

Number of messages in list aboveNodes
200

Statistics per gateway

GatewayNumber of messagesNumber of nodesNodes
1931
671
471
281
101
31

Filter by dataset